| time (UTC) | temp C | wind direction | speed KPH | gust KPH | rain 1hr cm | rain 24hr cm | rain mn cm | humidity % | barometer mb |
| 20260507151601 | 7 | 273 | 1.6 | 14.5 | 0.00 | 1.07 | 0.00 | 86 | 1006.9 |
| 20260507151501 | 7 | 273 | 3.2 | 14.5 | 0.00 | 1.07 | 0.00 | 85 | 1006.9 |
| 20260507150100 | 6 | 50 | 1.6 | 12.9 | 0.00 | 1.07 | 0.00 | 89 | 1006.9 |
| 20260507150001 | 6 | 288 | 0.0 | 12.9 | 0.00 | 1.12 | 0.00 | 90 | 1007.0 |
| 20260507144618 | 6 | 298 | 3.2 | 0.0 | 18.80 | 0.00 | 0.00 | 92 | 1006.8 |
| 20260507143104 | 6 | 340 | 3.2 | 8.0 | 0.00 | 1.12 | 0.00 | 92 | 1006.9 |
| 20260507141626 | 5 | 252 | 0.0 | 8.0 | 0.00 | 1.12 | 0.00 | 94 | 1007.0 |
| 20260507141500 | 5 | 252 | 1.6 | 8.0 | 0.00 | 1.12 | 0.00 | 94 | 1007.0 |
| 20260507140101 | 5 | 344 | 0.0 | 4.8 | 0.00 | 1.12 | 0.00 | 95 | 1007.0 |
| 20260507140006 | 5 | 344 | 0.0 | 3.2 | 0.00 | 1.12 | 0.00 | 95 | 1007.0 |
| 20260507134600 | 5 | 343 | 1.6 | 4.8 | 0.00 | 1.27 | 0.00 | 96 | 1006.9 |
| 20260507133100 | 4 | 341 | 1.6 | 8.0 | 0.00 | 1.27 | 0.00 | 96 | 1007.2 |
| 20260507131600 | 4 | 329 | 1.6 | 4.8 | 0.00 | 1.27 | 0.00 | 96 | 1007.1 |
| 20260507130110 | 4 | 329 | 0.0 | 3.2 | 0.00 | 1.27 | 0.00 | 96 | 1007.2 |
| 20260507130001 | 4 | 329 | 0.0 | 3.2 | 0.00 | 1.32 | 0.00 | 96 | 1007.1 |
| 20260507124613 | 3 | 329 | 0.0 | 3.2 | 0.00 | 1.32 | 0.00 | 96 | 1007.1 |
| 20260507123100 | 3 | 332 | 0.0 | 3.2 | 0.00 | 1.32 | 0.00 | 96 | 1007.0 |
| 20260507123001 | 3 | 332 | 0.0 | 3.2 | 0.00 | 1.32 | 0.00 | 96 | 1007.1 |
| 20260507121559 | 4 | 331 | 1.6 | 3.2 | 0.00 | 1.32 | 0.00 | 96 | 1007.0 |
| 20260507120100 | 3 | 9 | 0.0 | 1.6 | 0.00 | 1.32 | 0.00 | 96 | 1006.9 |
| 20260507120002 | 3 | 9 | 0.0 | 1.6 | 0.00 | 1.32 | 0.00 | 96 | 1006.9 |
| 20260507114601 | 3 | 9 | 0.0 | 3.2 | 0.00 | 1.35 | 0.00 | 97 | 1006.8 |
| 20260507113100 | 3 | 13 | 0.0 | 4.8 | 0.00 | 1.35 | 0.00 | 96 | 1006.8 |
| 20260507113004 | 3 | 13 | 0.0 | 4.8 | 0.00 | 1.35 | 0.00 | 96 | 1006.8 |
| 20260507111600 | 3 | 13 | 0.0 | 3.2 | 0.00 | 1.35 | 0.00 | 96 | 1006.8 |
| 20260507110100 | 3 | 13 | 0.0 | 0.0 | 0.00 | 1.35 | 0.00 | 96 | 1006.8 |
| 20260507110004 | 3 | 13 | 0.0 | 0.0 | 0.00 | 1.35 | 0.00 | 96 | 1006.8 |
| 20260507104611 | 2 | 13 | 0.0 | 0.0 | 0.00 | 1.35 | 0.00 | 96 | 1006.7 |
| 20260507103118 | 2 | 13 | 0.0 | 0.0 | 0.00 | 1.35 | 0.00 | 96 | 1006.9 |
| 20260507101517 | 2 | 13 | 0.0 | 1.6 | 0.00 | 1.35 | 0.00 | 96 | 1006.7 |
| 20260507100100 | 2 | 13 | 0.0 | 1.6 | 0.00 | 1.35 | 0.00 | 96 | 1006.7 |
| 20260507100002 | 2 | 13 | 0.0 | 1.6 | 0.00 | 1.35 | 0.00 | 96 | 1006.6 |
| 20260507094559 | 2 | 13 | 0.0 | 1.6 | 0.00 | 1.37 | 0.00 | 96 | 1006.9 |
| 20260507093101 | 2 | 13 | 0.0 | 0.0 | 0.00 | 1.37 | 0.00 | 95 | 1006.6 |
| 20260507093001 | 2 | 13 | 0.0 | 0.0 | 0.00 | 1.37 | 0.00 | 95 | 1006.6 |
| 20260507091700 | 2 | 13 | 0.0 | 0.0 | 0.00 | 1.37 | 0.00 | 95 | 1006.5 |
| 20260507090100 | 3 | 13 | 0.0 | 1.6 | 0.00 | 1.37 | 0.00 | 96 | 1006.5 |
| 20260507090006 | 3 | 13 | 0.0 | 1.6 | 0.00 | 1.42 | 0.00 | 96 | 1006.5 |
| 20260507084601 | 3 | 13 | 0.0 | 3.2 | 0.00 | 1.42 | 0.00 | 96 | 1006.7 |
| 20260507083100 | 3 | 13 | 0.0 | 0.0 | 0.00 | 1.42 | 0.00 | 96 | 1006.9 |
| 20260507080001 | 3 | 13 | 0.0 | 4.8 | 0.00 | 1.42 | 0.00 | 96 | 1006.4 |
| 20260507074603 | 3 | 15 | 0.0 | 0.0 | 0.00 | 1.50 | 0.00 | 96 | 1006.4 |
| 20260507073103 | 3 | 15 | 0.0 | 0.0 | 0.00 | 1.50 | 0.00 | 96 | 1006.4 |
| 20260507071602 | 3 | 15 | 0.0 | 0.0 | 0.00 | 1.50 | 0.00 | 96 | 1006.3 |
| 20260507070103 | 3 | 15 | 0.0 | 3.2 | 0.00 | 1.50 | 0.00 | 96 | 1006.4 |
| 20260507070000 | 3 | 15 | 0.0 | 4.8 | 0.00 | 1.52 | 0.00 | 96 | 1006.4 |
| 20260507064559 | 3 | 15 | 0.0 | 3.2 | 0.00 | 1.52 | 0.00 | 96 | 1006.3 |
| 20260507063101 | 3 | 15 | 0.0 | 0.0 | 0.00 | 1.52 | 0.00 | 96 | 1006.4 |
| 20260507061604 | 3 | 15 | 0.0 | 3.2 | 0.00 | 1.52 | 0.00 | 96 | 1006.4 |
| 20260507060104 | 3 | 15 | 1.6 | 6.4 | 0.00 | 1.52 | 0.00 | 96 | 1006.5 |
| 20260507054502 | 3 | 315 | 0.0 | 6.4 | 0.00 | 1.65 | 0.00 | 96 | 1006.4 |
| 20260507053109 | 3 | 9 | 1.6 | 9.7 | 0.00 | 1.65 | 0.00 | 96 | 1006.6 |
| 20260507051601 | 3 | 28 | 0.0 | 9.7 | 0.00 | 1.65 | 0.00 | 96 | 1006.7 |
| 20260507050002 | 3 | 331 | 1.6 | 6.4 | 0.00 | 1.65 | 0.00 | 96 | 1007.0 |
| 20260507044607 | 3 | 336 | 0.0 | 6.4 | 0.00 | 2.01 | 0.00 | 96 | 1006.8 |
| 20260507043105 | 3 | 340 | 3.2 | 6.4 | 0.00 | 2.01 | 0.00 | 96 | 1006.8 |
| 20260507041606 | 3 | 5 | 0.0 | 3.2 | 0.00 | 2.01 | 0.00 | 96 | 1006.7 |
| 20260507040059 | 3 | 37 | 0.0 | 6.4 | 0.00 | 2.01 | 0.00 | 96 | 1006.9 |
| 20260507040007 | 3 | 38 | 1.6 | 6.4 | 0.00 | 2.01 | 0.00 | 96 | 1006.9 |
| 20260507034501 | 3 | 9 | 3.2 | 8.0 | 0.00 | 2.16 | 2.01 | 96 | 1007.1 |
| 20260507033101 | 3 | 16 | 0.0 | 4.8 | 0.03 | 2.16 | 2.01 | 96 | 1007.0 |
| 20260507031559 | 3 | 332 | 1.6 | 6.4 | 0.05 | 2.16 | 2.01 | 96 | 1006.6 |
| 20260507030104 | 4 | 360 | 0.0 | 6.4 | 0.05 | 2.16 | 2.01 | 96 | 1006.6 |
| 20260507030003 | 4 | 350 | 0.0 | 4.8 | 0.05 | 2.16 | 2.01 | 96 | 1006.7 |
| 20260507024601 | 4 | 360 | 1.6 | 4.8 | 0.10 | 2.18 | 2.01 | 96 | 1006.6 |
| 20260507024501 | 4 | 11 | 0.0 | 4.8 | 0.10 | 2.18 | 2.01 | 96 | 1006.6 |
| 20260507023100 | 4 | 5 | 0.0 | 6.4 | 0.10 | 2.16 | 1.98 | 96 | 1006.7 |
| 20260507023002 | 4 | 5 | 0.0 | 6.4 | 0.10 | 2.16 | 1.98 | 95 | 1006.7 |
| 20260507021501 | 4 | 342 | 1.6 | 4.8 | 0.08 | 2.13 | 1.96 | 96 | 1006.8 |
| 20260507020105 | 4 | 360 | 0.0 | 4.8 | 0.10 | 2.13 | 1.96 | 96 | 1007.1 |
| 20260507014559 | 4 | 19 | 1.6 | 6.4 | 0.13 | 2.08 | 1.91 | 96 | 1007.0 |
| 20260507013103 | 5 | 348 | 0.0 | 3.2 | 0.13 | 2.06 | 1.88 | 96 | 1006.9 |
| 20260507013000 | 5 | 348 | 0.0 | 3.2 | 0.13 | 2.06 | 1.88 | 96 | 1006.9 |
| 20260507011600 | 5 | 348 | 0.0 | 6.4 | 0.13 | 2.06 | 1.88 | 96 | 1006.6 |
| 20260507011501 | 5 | 348 | 0.0 | 6.4 | 0.13 | 2.06 | 1.88 | 96 | 1006.6 |
| 20260507010100 | 5 | 20 | 0.0 | 6.4 | 0.13 | 2.03 | 1.85 | 96 | 1006.4 |
| 20260507004600 | 5 | 24 | 0.0 | 4.8 | 0.08 | 1.96 | 1.78 | 96 | 1006.4 |
| 20260507003059 | 5 | 29 | 1.6 | 6.4 | 0.05 | 1.93 | 1.75 | 96 | 1006.1 |
| 20260507001600 | 5 | 32 | 0.0 | 6.4 | 0.05 | 1.93 | 1.75 | 96 | 1005.6 |
| 20260507000110 | 5 | 17 | 1.6 | 8.0 | 0.03 | 1.91 | 1.73 | 96 | 1005.5 |
| 20260506234603 | 5 | 344 | 3.2 | 6.4 | 0.00 | 1.88 | 1.70 | 96 | 1005.1 |
| 20260506233104 | 5 | 331 | 1.6 | 8.0 | 0.00 | 1.88 | 1.70 | 95 | 1005.2 |
| 20260506231559 | 5 | 360 | 3.2 | 9.7 | 0.03 | 1.88 | 1.70 | 95 | 1005.1 |
| 20260506230001 | 5 | 12 | 1.6 | 6.4 | 0.03 | 1.88 | 1.70 | 95 | 1004.7 |
| 20260506224608 | 5 | 13 | 3.2 | 14.5 | 0.03 | 1.88 | 1.70 | 95 | 1004.7 |
| 20260506223059 | 5 | 297 | 1.6 | 8.0 | 0.03 | 1.88 | 1.70 | 95 | 1004.5 |
| 20260506221559 | 5 | 355 | 1.6 | 8.0 | 0.03 | 1.85 | 1.68 | 95 | 1004.5 |
| 20260506220002 | 5 | 360 | 3.2 | 9.7 | 0.03 | 1.85 | 1.68 | 95 | 1004.5 |
| 20260506214610 | 5 | 87 | 3.2 | 14.5 | 0.08 | 1.85 | 1.68 | 96 | 1004.5 |
| 20260506213100 | 5 | 335 | 0.0 | 9.7 | 0.08 | 1.85 | 1.68 | 96 | 1004.6 |
| 20260506211559 | 5 | 12 | 0.0 | 3.2 | 0.08 | 1.83 | 1.65 | 95 | 1004.4 |
| 20260506210100 | 5 | 355 | 0.0 | 4.8 | 0.10 | 1.83 | 1.65 | 95 | 1004.5 |
| 20260506204632 | 5 | 349 | 0.0 | 8.0 | 0.08 | 1.93 | 1.60 | 95 | 1004.1 |
| 20260506203059 | 5 | 355 | 3.2 | 8.0 | 0.08 | 1.93 | 1.60 | 95 | 1004.2 |
| 20260506201600 | 5 | 320 | 1.6 | 6.4 | 0.05 | 1.91 | 1.57 | 95 | 1004.1 |
| 20260506200059 | 5 | 338 | 1.6 | 4.8 | 0.03 | 1.88 | 1.55 | 95 | 1004.2 |
| 20260506200002 | 5 | 336 | 1.6 | 4.8 | 0.03 | 1.88 | 1.55 | 95 | 1004.1 |
| 20260506194606 | 5 | 15 | 3.2 | 8.0 | 0.00 | 1.88 | 1.52 | 95 | 1004.0 |
| 20260506193101 | 5 | 333 | 1.6 | 8.0 | 0.00 | 1.88 | 1.52 | 95 | 1004.1 |
| 20260506191559 | 6 | 333 | 4.8 | 12.9 | 0.03 | 1.88 | 1.52 | 96 | 1004.1 |
| 20260506190100 | 5 | 5 | 4.8 | 14.5 | 0.08 | 1.88 | 1.52 | 96 | 1004.0 |
| 20260506184600 | 5 | 340 | 1.6 | 6.4 | 0.13 | 1.88 | 1.52 | 96 | 1004.0 |
| 20260506183106 | 5 | 11 | 3.2 | 9.7 | 0.15 | 1.88 | 1.52 | 95 | 1004.3 |
| 20260506181602 | 5 | 342 | 1.6 | 6.4 | 0.18 | 1.85 | 1.50 | 95 | 1004.4 |
| 20260506180101 | 5 | 327 | 1.6 | 8.0 | 0.20 | 1.80 | 1.42 | 95 | 1004.3 |
| 20260506180002 | 5 | 327 | 1.6 | 8.0 | 0.20 | 1.80 | 1.42 | 95 | 1004.4 |
| 20260506174602 | 5 | 349 | 1.6 | 4.8 | 0.20 | 1.75 | 1.40 | 95 | 1004.6 |
| 20260506173101 | 5 | 5 | 0.0 | 8.0 | 0.23 | 1.73 | 1.37 | 95 | 1005.0 |
| 20260506171604 | 5 | 323 | 3.2 | 9.7 | 0.23 | 1.68 | 1.32 | 95 | 1004.9 |
| 20260506170107 | 5 | 5 | 3.2 | 19.3 | 0.18 | 1.60 | 1.24 | 95 | 1004.7 |
| 20260506170002 | 5 | 26 | 1.6 | 19.3 | 0.18 | 1.60 | 1.24 | 95 | 1004.7 |
| 20260506164603 | 6 | 333 | 4.8 | 14.5 | 0.15 | 1.55 | 1.19 | 95 | 1004.9 |
| 20260506164503 | 6 | 328 | 3.2 | 9.7 | 0.15 | 1.55 | 1.19 | 95 | 1004.9 |
| 20260506163106 | 6 | 348 | 1.6 | 9.7 | 0.13 | 1.50 | 1.14 | 95 | 1004.3 |
| 20260506161607 | 6 | 342 | 1.6 | 6.4 | 0.10 | 1.42 | 1.09 | 95 | 1004.3 |
| 20260506160059 | 7 | 351 | 0.0 | 6.4 | 0.13 | 1.42 | 1.07 | 95 | 1004.4 |
| 20260506160002 | 7 | 351 | 1.6 | 6.4 | 0.13 | 1.42 | 1.07 | 95 | 1004.3 |
| 20260506154613 | 7 | 351 | 1.6 | 6.4 | 0.10 | 1.40 | 1.04 | 95 | 1004.4 |
| 20260506153059 | 7 | 18 | 1.6 | 4.8 | 0.10 | 1.37 | 1.02 | 95 | 1004.7 |